Regional Weather Roundup
Issued by NWS Wakefield, VA

Home | Current Version | Previous Version | Graphics & Text | Print | Product List | Glossary On
Versions: 1 2 3 4 5 6 7 8 9 10 11 12 13 14 15 16 17 18 19 20 21 22 23 24 25 26 27 28 29 30 31 32 33 34 35 36 37 38 39 40 41 42 43 44 45 46 47 48 49 50
421
ASUS41 KAKQ 230914
RWRAKQ

REGIONAL WEATHER ROUNDUP
NATIONAL WEATHER SERVICE WAKEFIELD VA
500 AM EDT WED MAY 23 2018

Note: "fair" indicates few or no clouds below 12,000 feet with no
significant weather and/or obstructions to visibility. * = Denotes
station may not report precipitation (e.g., rain,snow,etc.),
thunder or fog.

VAZ042-051-052>054-056-231000-
NORTHERN VIRGINIA

CITY           SKY/WX    TMP DP  RH WIND       PRES   REMARKS
WASH NATIONAL  MOCLDY    68  65  90 S6        29.93R
DULLES         MOCLDY    66  66 100 CALM      29.93R
FORT BELVOIR   FAIR      66  65  98 CALM      29.93R
QUANTICO       FAIR      69  68  96 CALM      29.93S
FREDERICKSBRG* FAIR      68  68 100 CALM      29.92R
STAFFORD*      FAIR      67  67 100 CALM      29.97R
WARRENTON      NOT AVBL
CULPEPER*      FAIR      66  64  96 CALM      29.94S FOG
MANASSAS*      FAIR      65  65 100 CALM      29.93S
LEESBURG*      FAIR      63  63 100 CALM      29.93S
WINCHESTER     FAIR      64  63  94 SW5       29.96R
FRONT ROYAL*   FAIR      66  64  94 S3        29.93R
LURAY*         FAIR      64  64 100 CALM      29.96R
$$

VAZ048-049-060>072-079>083-231000-
CENTRAL AND SOUTH CENTRAL VIRGINIA

CITY           SKY/WX    TMP DP  RH WIND       PRES   REMARKS
RICHMOND       FAIR      69  67  93 SW8       29.94S
CHESTERFIELD*  FAIR      69  67  93 SW6       29.95S
PETERSBURG*    FAIR      69  67  91 SW7       29.96F
HANOVER        FAIR      70  68  93 SW9       29.94S
TAPPAHANNOCK*  FAIR      69  69  98 SW6       29.94R
QUINTON*       FAIR      69  69 100 W3        29.93S
CHARLOTTSVILLE FAIR      71  65  81 VRB5      29.93R
GORDONSVILLE*  FAIR      66  66 100 CALM      29.93S
ORANGE*        FAIR      64  64 100 SW6       29.93S
LOUISA*        FAIR      67  65  96 SW3       29.98R
BUMPASS*       FAIR      67  65  96 SW3       29.94R
FARMVILLE*     FAIR     N/A N/A N/A SW3       29.96S
CREWE*         FAIR      69  69 100 SW3       29.97S
FORT PICKETT*  FAIR      69  69 100 SW9       29.98S
CHASE CITY*    FAIR      69  69 100 CALM      30.00S
CLARKSVILLE*   FAIR      70  70 100 S6        29.99F
SOUTH HILL*    FAIR      70  68  95 S8        30.04F
LAWRENCEVILLE* FAIR      69  67  94 S6        29.99S
EMPORIA*       FAIR      68  66  94 S3        30.00F
$$

VAZ088>098-231000-
SOUTHEAST VIRGINIA

CITY           SKY/WX    TMP DP  RH WIND       PRES   REMARKS
NORFOLK        FAIR      73  69  87 SW15      29.96F
VIRGINIA BEACH MOCLDY    71  69  93 SW12      29.96F
NORFOLK NAVAL  MOCLDY    73  67  81 SW12      29.97F
WEST POINT*    FAIR      71  68  92 SW8       29.94F
SALUDA*        FAIR      70  70 100 SW6       29.93S
NEWPORT NEWS   FAIR      73  67  81 SW15      29.95F
LANGLEY AFB    FAIR      73  69  88 SW15      29.96S
FORT EUSTIS    FAIR      72  68  88 SW9       29.93F
WILLIAMSBURG*  FAIR      73  70  88 W8        29.96F
HR EXEC AP*    FAIR      71  68  90 SW9       29.98F
FRANKLIN*      MOCLDY    70  69  95 SW5       29.99F
US460-WAKEFLD  FAIR      70  67  90 SW9       29.96F
$$

VAZ020-022-025-037-045-231000-
WEST CENTRAL AND SOUTHWEST VIRGINIA

CITY           SKY/WX    TMP DP  RH WIND       PRES   REMARKS
STAUNTON*      MOCLDY    66  63  88 S5        29.99R
WAYNESBORO*    PTSUNNY   67  65  94 SW7       29.98S
HOT SPRINGS VA FOG       59  59 100 W16       30.10F VSB<1/4
LYNCHBURG      FAIR      65  64  97 SW3       30.00F
DANVILLE       MOCLDY    69  68  96 SW7       30.01F
SOUTH BOSTON*  FAIR      70  69  96 SW5       30.00S
MARTINSVILLE   CLOUDY    68  65  89 CALM      30.05F
ROANOKE        FAIR      64  63  96 CALM      30.04S
BLACKSBURG     FOG       62  62 100 CALM      30.12R VSB 1/4
DUBLIN*        FAIR      63  63 100 SW5       30.10S
MARION*        CLOUDY    63  63  98 CALM      30.14S FOG
HILLSVILLE*    FAIR      61  60  96 CALM      30.10F
RICHLANDS*     FAIR      62  32  32 W3        30.13R HAZE
WISE*          FOG       63  63 100 CALM      30.14S VSB 1/4
ABINGDON*      CLOUDY    65  65 100 CALM      30.11S FOG
$$

MDZ021>025-VAZ099-100-231000-
SOUTHERN MARYLAND AND THE DELMARVA PENINSULA

CITY           SKY/WX    TMP DP  RH WIND       PRES   REMARKS
PATUXENT RIVER FAIR      70  66  87 CALM      29.92S
BAY BRIDGE APT FAIR      68  66  94 SW3       29.92S
LEONARDTOWN    FAIR      66  64  94 W3        29.95R
DOVER          FAIR      67  67  97 SW7       29.91R
GEORGETOWN     FAIR      67  66  97 SW7       29.93F
EASTON         FAIR      69  67  94 CALM      29.96S
CAMBRIDGE      CLEAR     66  66 100 S5        29.93S
SALISBURY      CLOUDY    70  69  97 CALM      29.93F
TANGIER        FAIR      72  72 100 SW12      29.93R
OCEAN CITY     MOCLDY    67  67 100 SW5       29.94S
WALLOPS ISLAND FAIR      72  70  93 SW5       29.94R
ACCOMACK*      FAIR      72  70  94 SW10G17   29.94S
$$

NCZ012>017-030>032-231000-
NORTH CENTRAL AND EASTERN NORTH CAROLINA

CITY           SKY/WX    TMP DP  RH WIND       PRES   REMARKS
ROANOKE RAPIDS   N/A     70  70 100 SW6       30.01S
RALEIGH        MOCLDY    69  67  93 SW9       30.04S
ELIZABETH CITY FAIR      72  71  97 SW13      30.01S
AHOSKIE*       FAIR      69  69 100 CALM      30.02R
EDENTON*       CLOUDY    74  71  90 SW8       30.03S
CURRITUCK*     NOT AVBL
KILL DEVIL HLS FAIR      71  69  93 SW8G16    30.01S
MANTEO         FAIR      72  69  92 W14       30.03S
CAPE HATTERAS  FAIR      73  71  93 SW9       30.06R
TARBORO*       NOT AVBL
GOLDSBORO      FAIR      71  69  94 SW6       30.04R
WASHINGTON     CLOUDY    69  68  96 CALM      30.06R
GREENVILLE     FAIR      70  70 100 SW7       30.06S
NEW BERN       FAIR      69  69 100 SW7       30.07R
WILMINGTON     MOCLDY    72  69  90 S3        30.07S
$$

VAZ048-231000-
ELSEWHERE

CITY           SKY/WX    TMP DP  RH WIND       PRES   REMARKS
HARRISBURG PA  FOG       63  62  97 N5        29.92R VSB 1/2
BALTIMORE      FAIR      66  66 100 SW3       29.91S
ANNAPOLIS        N/A    N/A N/A N/A MISG      29.91S
ANDREWS AFB    FAIR      67  67  99 SW6       29.92S
PHILADELPHIA   CLOUDY    62  61  96 NE3       29.92R FOG
HENDERSON NC   LGT RAIN  67  64  88 SW8       30.02S
GREENSBORO     MOCLDY    69  67  93 SW7       30.04S
ROCKY MOUNT    FAIR      70  69  97 S8        30.03F
$$

VAZ100-231000-
MARINE

STATION/POSITION TIME  TEMP    WIND        PRES    WAVE   SWELL
                       AIR SEA DIR/SP/G            HT/PER HT/PER
                 (UTC) (F)     (DEG/KT/KT) (MB)    (FT/S) (FT/S)
BRANDYWINE LGT   0836   67     220/ 10/ 12 1013.2F
CAPE MAY NJ      0836   66 65  210/  5/  8 1012.6F
LEWES DE         0836   67 65  240/  4/  6 1013.1F
15NM E FENWICK I 0850   62 63  210/  4/  6 1014.0S   2/ 9   2/ 9
OCEAN-CITY-INLET 0836   67 62  320/  3/  3 1014.4R
WACHAPREAGUE VA  0836   71 74  210/  7/ 12 1013.8R
THOMAS POINT MD  0900   68 68  210/  6/  7 1014.0R
GOOSES REEF MD   0900   70     250/  4/  4 1013.8    1
COVE POINT MD    0836   69     320/  2/  6 1014.2R
SOLOMONS ISLAND  0836   69 70  270/  2/  4 1013.3R
BISHOPS HEAD MD  0836   71 74  230/  8/  9 1013.9R
PINEY POINT MD   0848          320/  5/  6   N/A
POTOMAC MD       0900   71 71  240/  8/ 12 1012.8    1/ 2
CAMBRIDGE MD     0836   68 72              1014.5R
LEWISETTA VA     0836   71 73  240/  8/ 10 1013.1R
RAPPAHANNOCK LGT 0848          210/ 14/ 16 1014.3R
STINGRAY PT      0900   72 71  250/ 14/ 17 1017.1    1/ 2
YORK RVR RNG VA  0848   74     250/ 18/ 21 1014.1F
YORKTOWN VA      0848   72 72  230/ 11/ 14 1013.4F
DOMINION TERM VA 0848   74     230/ 14/ 17 1014.8F
KIPTOPEKE VA     0836      70  240/ 11/ 13   N/A
CAPE HENRY VA    0848   73     220/ 12/ 18   N/A
WILLOUBY STN VA  0848          240/ 19/ 20   N/A
S CRANEY ISL VA  0848   73     230/  8/ 11 1014.6F
CAPE HENRY BUOY  0900      67                N/A     2/ 8
1ST LANDING BUOY 0900   73 70  240/ 17/ 21 1014.1    2/ 3
64NM E OF VA BCH 0850   70 68  220/ 14/ 16 1015.8F   4/ 5   2/ 8
DUCK PIER NC     0836   73 65  230/ 15/ 20 1016.0F
44100 DUCK FRF   0845      68                N/A     3/ 8
44056 DUCK FRF   0830      67                N/A     2/ 9
OREGON INLET NC  0836   74 77  220/ 17/ 21 1016.6F
HATTERAS NC      0848   73 76  230/ 10/ 15 1017.4R
DIAMOND SHLS NC  0900   75 74  240/ 16/ 19 1018.1
CAPE LOOKOUT NC  0900          230/  8/ 10 1018.5F
$$




USA.gov is the U.S. government's official web portal to all federal, state and local government web resources and services.